Location: Agendoh
(31.0664°N, 8.9343°W)
Time: 03:21:18
(UTC+00:00)

Lacrosse 5 - Pass Details

Date: 29 June 2022
Orbit: 714 x 724 km, 57.0° (Epoch: 09 March)

Event Time Altitude Azimuth Distance (km) Brightness Sun altitude
Rises 23:58:46 0° 319° (NW) 3,135 5.9 -34.8°
Reaches altitude 10° 00:01:10 10° 317° (NW) 2,210 5.0 -34.9°
Enters shadow 00:03:05 23° 312° (NW) 1,503 3.9 -35.0°
